Year,Month,Day,Hour,Minute,Value (Times are PST for windgust in km/hr)
2023,09,24,00,00,1.60
2023,09,24,00,01,3.20
2023,09,24,00,02,4.80
2023,09,24,00,03,3.20
2023,09,24,00,04,3.20
2023,09,24,00,05,3.20
2023,09,24,00,06,3.20
2023,09,24,00,07,3.20
2023,09,24,00,08,1.60
2023,09,24,00,09,3.20
2023,09,24,00,10,1.60
2023,09,24,00,17,1.60
2023,09,24,00,18,1.60
2023,09,24,00,19,1.60
2023,09,24,00,21,1.60
2023,09,24,00,28,1.60
2023,09,24,00,29,3.20
2023,09,24,00,30,3.20
2023,09,24,00,31,3.20
2023,09,24,00,32,3.20
2023,09,24,00,33,3.20
2023,09,24,00,34,3.20
2023,09,24,00,35,3.20
2023,09,24,00,36,4.80
2023,09,24,00,37,4.80
2023,09,24,00,38,3.20
2023,09,24,00,39,3.20
2023,09,24,00,40,3.20
2023,09,24,00,41,3.20
2023,09,24,00,42,3.20
2023,09,24,00,43,3.20
2023,09,24,00,44,4.80
2023,09,24,00,45,3.20
2023,09,24,00,46,3.20
2023,09,24,00,47,3.20
2023,09,24,00,48,3.20
2023,09,24,00,49,3.20
2023,09,24,00,50,3.20
2023,09,24,00,51,3.20
2023,09,24,00,52,4.80
2023,09,24,00,53,4.80
2023,09,24,00,54,4.80
2023,09,24,00,55,4.80
2023,09,24,00,56,4.80
2023,09,24,00,57,4.80
2023,09,24,00,58,4.80
2023,09,24,00,59,3.20
2023,09,24,01,00,3.20
2023,09,24,01,01,3.20
2023,09,24,01,02,3.20
2023,09,24,01,03,4.80
2023,09,24,01,04,3.20
2023,09,24,01,05,4.80
2023,09,24,01,06,4.80
2023,09,24,01,07,4.80
2023,09,24,01,08,4.80
2023,09,24,01,09,4.80
2023,09,24,01,10,4.80
2023,09,24,01,11,4.80
2023,09,24,01,12,3.20
2023,09,24,01,13,3.20
2023,09,24,01,14,3.20
2023,09,24,01,15,1.60
2023,09,24,01,16,1.60
2023,09,24,01,17,1.60
2023,09,24,01,18,1.60
2023,09,24,01,19,1.60
2023,09,24,01,20,3.20
2023,09,24,01,21,3.20
2023,09,24,01,22,1.60
2023,09,24,01,23,1.60
2023,09,24,01,24,3.20
2023,09,24,01,25,3.20
2023,09,24,01,26,3.20
2023,09,24,01,27,3.20
2023,09,24,01,28,3.20
2023,09,24,01,29,3.20
2023,09,24,01,30,3.20
2023,09,24,01,31,1.60
2023,09,24,01,32,3.20
2023,09,24,01,33,3.20
2023,09,24,01,34,3.20
2023,09,24,01,35,3.20
2023,09,24,01,36,3.20
2023,09,24,01,37,3.20
2023,09,24,01,38,3.20
2023,09,24,01,39,4.80
2023,09,24,01,40,3.20
2023,09,24,01,41,3.20
2023,09,24,01,42,3.20
2023,09,24,01,43,1.60
2023,09,24,01,44,1.60
2023,09,24,01,45,1.60
2023,09,24,01,46,1.60
2023,09,24,01,47,1.60
2023,09,24,01,48,1.60
2023,09,24,01,49,3.20
2023,09,24,01,50,3.20
2023,09,24,01,51,3.20
2023,09,24,01,52,3.20
2023,09,24,01,53,3.20
2023,09,24,01,54,1.60
2023,09,24,01,55,3.20
2023,09,24,01,56,3.20
2023,09,24,01,57,3.20
2023,09,24,01,58,1.60
2023,09,24,01,59,3.20
2023,09,24,02,00,1.60
2023,09,24,02,01,1.60
2023,09,24,02,02,3.20
2023,09,24,02,03,3.20
2023,09,24,02,04,3.20
2023,09,24,02,05,3.20
2023,09,24,02,06,1.60
2023,09,24,02,07,1.60
2023,09,24,02,08,3.20
2023,09,24,02,09,3.20
2023,09,24,02,10,4.80
2023,09,24,02,11,4.80
2023,09,24,02,12,4.80
2023,09,24,02,13,4.80
2023,09,24,02,14,4.80
2023,09,24,02,15,3.20
2023,09,24,02,16,4.80
2023,09,24,02,17,4.80
2023,09,24,02,18,4.80
2023,09,24,02,19,6.40
2023,09,24,02,20,6.40
2023,09,24,02,21,4.80
2023,09,24,02,22,4.80
2023,09,24,02,23,4.80
2023,09,24,02,24,4.80
2023,09,24,02,25,3.20
2023,09,24,02,26,4.80
2023,09,24,02,27,4.80
2023,09,24,02,28,3.20
2023,09,24,02,29,3.20
2023,09,24,02,30,6.40
2023,09,24,02,31,4.80
2023,09,24,02,32,6.40
2023,09,24,02,33,6.40
2023,09,24,02,34,4.80
2023,09,24,02,35,4.80
2023,09,24,02,36,3.20
2023,09,24,02,37,3.20
2023,09,24,02,38,3.20
2023,09,24,02,39,3.20
2023,09,24,02,40,3.20
2023,09,24,02,41,1.60
2023,09,24,02,53,1.60
2023,09,24,02,54,1.60
2023,09,24,02,55,1.60
2023,09,24,02,56,3.20
2023,09,24,02,57,3.20
2023,09,24,02,58,3.20
2023,09,24,02,59,3.20
2023,09,24,03,00,3.20
2023,09,24,03,01,3.20
2023,09,24,03,02,1.60
2023,09,24,03,03,1.60
2023,09,24,03,04,1.60
2023,09,24,03,05,3.20
2023,09,24,03,06,3.20
2023,09,24,03,07,4.80
2023,09,24,03,08,4.80
2023,09,24,03,09,4.80
2023,09,24,03,10,4.80
2023,09,24,03,11,4.80
2023,09,24,03,12,4.80
2023,09,24,03,13,6.40
2023,09,24,03,14,6.40
2023,09,24,03,15,6.40
2023,09,24,03,16,6.40
2023,09,24,03,17,8.10
2023,09,24,03,18,6.40
2023,09,24,03,19,6.40
2023,09,24,03,20,6.40
2023,09,24,03,21,8.10
2023,09,24,03,22,8.10
2023,09,24,03,23,11.30
2023,09,24,03,24,6.40
2023,09,24,03,25,8.10
2023,09,24,03,26,6.40
2023,09,24,03,27,4.80
2023,09,24,03,28,6.40
2023,09,24,03,29,6.40
2023,09,24,03,30,6.40
2023,09,24,03,31,6.40
2023,09,24,03,32,6.40
2023,09,24,03,33,6.40
2023,09,24,03,34,4.80
2023,09,24,03,35,6.40
2023,09,24,03,36,6.40
2023,09,24,03,37,4.80
2023,09,24,03,38,4.80
2023,09,24,03,39,3.20
2023,09,24,03,40,4.80
2023,09,24,03,41,4.80
2023,09,24,03,42,3.20
2023,09,24,03,43,4.80
2023,09,24,03,44,4.80
2023,09,24,03,45,4.80
2023,09,24,03,46,6.40
2023,09,24,03,47,4.80
2023,09,24,03,48,6.40
2023,09,24,03,49,4.80
2023,09,24,03,50,8.10
2023,09,24,03,51,6.40
2023,09,24,03,52,8.10
2023,09,24,03,53,4.80
2023,09,24,03,54,4.80
2023,09,24,03,55,4.80
2023,09,24,03,56,4.80
2023,09,24,03,57,4.80
2023,09,24,03,58,4.80
2023,09,24,03,59,6.40
2023,09,24,04,00,3.20
2023,09,24,04,01,4.80
2023,09,24,04,02,4.80
2023,09,24,04,03,3.20
2023,09,24,04,04,3.20
2023,09,24,04,05,3.20
2023,09,24,04,06,3.20
2023,09,24,04,07,4.80
2023,09,24,04,08,3.20
2023,09,24,04,09,4.80
2023,09,24,04,10,3.20
2023,09,24,04,11,3.20
2023,09,24,04,12,3.20
2023,09,24,04,13,1.60
2023,09,24,04,14,1.60
2023,09,24,04,17,1.60
2023,09,24,04,19,1.60
2023,09,24,04,20,3.20
2023,09,24,04,21,4.80
2023,09,24,04,22,3.20
2023,09,24,04,23,4.80
2023,09,24,04,24,3.20
2023,09,24,04,25,3.20
2023,09,24,04,26,3.20
2023,09,24,04,27,3.20
2023,09,24,04,28,3.20
2023,09,24,04,29,3.20
2023,09,24,04,30,3.20
2023,09,24,04,31,6.40
2023,09,24,04,32,4.80
2023,09,24,04,33,6.40
2023,09,24,04,34,6.40
2023,09,24,04,35,6.40
2023,09,24,04,36,6.40
2023,09,24,04,37,8.10
2023,09,24,04,38,4.80
2023,09,24,04,39,4.80
2023,09,24,04,40,4.80
2023,09,24,04,41,3.20
2023,09,24,04,42,3.20
2023,09,24,04,43,3.20
2023,09,24,04,44,3.20
2023,09,24,04,45,4.80
2023,09,24,04,46,4.80
2023,09,24,04,47,4.80
2023,09,24,04,48,4.80
2023,09,24,04,49,3.20
2023,09,24,04,50,3.20
2023,09,24,04,51,3.20
2023,09,24,04,52,3.20
2023,09,24,04,53,3.20
2023,09,24,04,54,3.20
2023,09,24,04,55,4.80
2023,09,24,04,56,3.20
2023,09,24,04,57,3.20
2023,09,24,04,58,3.20
2023,09,24,04,59,3.20
2023,09,24,05,00,4.80
2023,09,24,05,01,4.80
2023,09,24,05,02,4.80
2023,09,24,05,03,4.80
2023,09,24,05,04,6.40
2023,09,24,05,05,4.80
2023,09,24,05,06,6.40
2023,09,24,05,07,6.40
2023,09,24,05,08,6.40
2023,09,24,05,09,4.80
2023,09,24,05,10,4.80
2023,09,24,05,11,4.80
2023,09,24,05,12,4.80
2023,09,24,05,13,4.80
2023,09,24,05,14,6.40
2023,09,24,05,15,4.80
2023,09,24,05,16,3.20
2023,09,24,05,17,4.80
2023,09,24,05,18,4.80
2023,09,24,05,19,4.80
2023,09,24,05,20,4.80
2023,09,24,05,21,6.40
2023,09,24,05,22,4.80
2023,09,24,05,23,4.80
2023,09,24,05,24,6.40
2023,09,24,05,25,4.80
2023,09,24,05,26,4.80
2023,09,24,05,27,6.40
2023,09,24,05,28,6.40
2023,09,24,05,29,4.80
2023,09,24,05,30,4.80
2023,09,24,05,31,4.80
2023,09,24,05,32,4.80
2023,09,24,05,33,4.80
2023,09,24,05,34,4.80
2023,09,24,05,35,4.80
2023,09,24,05,36,6.40
2023,09,24,05,37,4.80
2023,09,24,05,38,4.80
2023,09,24,05,39,4.80
2023,09,24,05,40,3.20
2023,09,24,05,41,4.80
2023,09,24,05,42,4.80
2023,09,24,05,43,4.80
2023,09,24,05,44,4.80
2023,09,24,05,45,4.80
2023,09,24,05,46,3.20
2023,09,24,05,47,4.80
2023,09,24,05,48,4.80
2023,09,24,05,49,4.80
2023,09,24,05,50,4.80
2023,09,24,05,51,4.80
2023,09,24,05,52,4.80
2023,09,24,05,53,4.80
2023,09,24,05,54,6.40
2023,09,24,05,55,6.40
2023,09,24,05,56,6.40
2023,09,24,05,57,4.80
2023,09,24,05,58,6.40
2023,09,24,05,59,6.40
2023,09,24,06,00,8.10
2023,09,24,06,01,6.40
2023,09,24,06,02,6.40
2023,09,24,06,03,6.40
2023,09,24,06,04,4.80
2023,09,24,06,05,4.80
2023,09,24,06,06,4.80
2023,09,24,06,07,4.80
2023,09,24,06,08,3.20
2023,09,24,06,09,3.20
2023,09,24,06,10,4.80
2023,09,24,06,11,3.20
2023,09,24,06,12,3.20
2023,09,24,06,13,3.20
2023,09,24,06,14,6.40
2023,09,24,06,15,6.40
2023,09,24,06,16,8.10
2023,09,24,06,17,8.10
2023,09,24,06,18,11.30
2023,09,24,06,19,9.60
2023,09,24,06,20,8.10
2023,09,24,06,21,12.90
2023,09,24,06,22,12.90
2023,09,24,06,23,11.30
2023,09,24,06,24,11.30
2023,09,24,06,25,11.30
2023,09,24,06,26,8.10
2023,09,24,06,27,9.60
2023,09,24,06,28,11.30
2023,09,24,06,29,11.30
2023,09,24,06,30,11.30
2023,09,24,06,31,9.60
2023,09,24,06,32,11.30
2023,09,24,06,33,8.10
2023,09,24,06,34,8.10
2023,09,24,06,35,12.90
2023,09,24,06,36,8.10
2023,09,24,06,37,6.40
2023,09,24,06,38,8.10
2023,09,24,06,39,11.30
2023,09,24,06,40,12.90
2023,09,24,06,41,11.30
2023,09,24,06,42,12.90
2023,09,24,06,43,11.30
2023,09,24,06,44,11.30
2023,09,24,06,45,12.90
2023,09,24,06,46,9.60
2023,09,24,06,47,9.60
2023,09,24,06,48,8.10
2023,09,24,06,49,8.10
2023,09,24,06,50,9.60
2023,09,24,06,51,9.60
2023,09,24,06,52,12.90
2023,09,24,06,53,9.60
2023,09,24,06,54,6.40
2023,09,24,06,55,8.10
2023,09,24,06,56,6.40
2023,09,24,06,57,6.40
2023,09,24,06,58,3.20
2023,09,24,06,59,1.60
2023,09,24,07,00,4.80
2023,09,24,07,01,3.20
2023,09,24,07,02,1.60
2023,09,24,07,03,3.20
2023,09,24,07,04,8.10
2023,09,24,07,05,6.40
2023,09,24,07,06,8.10
2023,09,24,07,07,8.10
2023,09,24,07,08,8.10
2023,09,24,07,09,11.30
2023,09,24,07,10,11.30
2023,09,24,07,11,12.90
2023,09,24,07,12,12.90
2023,09,24,07,13,8.10
2023,09,24,07,14,11.30
2023,09,24,07,15,12.90
2023,09,24,07,16,6.40
2023,09,24,07,17,8.10
2023,09,24,07,18,11.30
2023,09,24,07,19,8.10
2023,09,24,07,20,11.30
2023,09,24,07,21,8.10
2023,09,24,07,22,11.30
2023,09,24,07,23,11.30
2023,09,24,07,24,4.80
2023,09,24,07,25,3.20
2023,09,24,07,26,1.60
2023,09,24,07,27,3.20
2023,09,24,07,28,3.20
2023,09,24,07,29,3.20
2023,09,24,07,30,1.60
2023,09,24,07,31,3.20
2023,09,24,07,32,3.20
2023,09,24,07,33,3.20
2023,09,24,07,35,4.80
2023,09,24,07,36,4.80
2023,09,24,07,37,6.40
2023,09,24,07,38,6.40
2023,09,24,07,39,6.40
2023,09,24,07,40,8.10
2023,09,24,07,41,8.10
2023,09,24,07,42,8.10
2023,09,24,07,43,8.10
2023,09,24,07,44,6.40
2023,09,24,07,45,4.80
2023,09,24,07,46,4.80
2023,09,24,07,47,4.80
2023,09,24,07,48,8.10
2023,09,24,07,49,12.90
2023,09,24,07,50,8.10
2023,09,24,07,51,8.10
2023,09,24,07,52,8.10
2023,09,24,07,53,6.40
2023,09,24,07,54,8.10
2023,09,24,07,55,8.10
2023,09,24,07,56,9.60
2023,09,24,07,57,14.50
2023,09,24,07,58,12.90
2023,09,24,07,59,11.30
2023,09,24,08,00,12.90
2023,09,24,08,01,12.90
2023,09,24,08,02,12.90
2023,09,24,08,03,14.50
2023,09,24,08,04,16.10
2023,09,24,08,05,14.50
2023,09,24,08,06,12.90
2023,09,24,08,07,12.90
2023,09,24,08,08,11.30
2023,09,24,08,09,14.50
2023,09,24,08,10,12.90
2023,09,24,08,11,11.30
2023,09,24,08,12,11.30
2023,09,24,08,13,8.10
2023,09,24,08,14,4.80
2023,09,24,08,15,3.20
2023,09,24,08,16,1.60
2023,09,24,08,17,6.40
2023,09,24,08,18,3.20
2023,09,24,08,23,1.60
2023,09,24,08,24,1.60
2023,09,24,08,25,1.60
2023,09,24,08,26,1.60
2023,09,24,08,27,3.20
2023,09,24,08,28,3.20
2023,09,24,08,31,1.60
2023,09,24,08,32,1.60
2023,09,24,08,33,1.60
2023,09,24,08,34,1.60
2023,09,24,08,35,3.20
2023,09,24,08,36,3.20
2023,09,24,08,37,3.20
2023,09,24,08,38,4.80
2023,09,24,08,39,6.40
2023,09,24,08,40,8.10
2023,09,24,08,41,6.40
2023,09,24,08,42,8.10
2023,09,24,08,43,6.40
2023,09,24,08,44,6.40
2023,09,24,08,45,8.10
2023,09,24,08,46,11.30
2023,09,24,08,47,9.60
2023,09,24,08,48,8.10
2023,09,24,08,49,14.50
2023,09,24,08,50,8.10
2023,09,24,08,51,8.10
2023,09,24,08,52,12.90
2023,09,24,08,53,8.10
2023,09,24,08,54,12.90
2023,09,24,08,55,9.60
2023,09,24,08,56,8.10
2023,09,24,08,57,8.10
2023,09,24,08,58,6.40
2023,09,24,08,59,9.60
2023,09,24,09,00,8.10
2023,09,24,09,01,6.40
2023,09,24,09,02,4.80
2023,09,24,09,03,6.40
2023,09,24,09,04,8.10
2023,09,24,09,05,6.40
2023,09,24,09,06,8.10
2023,09,24,09,07,8.10
2023,09,24,09,08,6.40
2023,09,24,09,09,9.60
2023,09,24,09,10,9.60
2023,09,24,09,11,8.10
2023,09,24,09,12,8.10
2023,09,24,09,13,6.40
2023,09,24,09,14,4.80
2023,09,24,09,15,8.10
2023,09,24,09,16,8.10
2023,09,24,09,17,11.30
2023,09,24,09,18,8.10
2023,09,24,09,19,8.10
2023,09,24,09,20,11.30
2023,09,24,09,21,8.10
2023,09,24,09,22,6.40
2023,09,24,09,23,8.10
2023,09,24,09,24,8.10
2023,09,24,09,25,6.40
2023,09,24,09,26,6.40
2023,09,24,09,27,8.10
2023,09,24,09,28,8.10
2023,09,24,09,29,8.10
2023,09,24,09,30,8.10
2023,09,24,09,31,11.30
2023,09,24,09,32,8.10
2023,09,24,09,33,6.40
2023,09,24,09,34,6.40
2023,09,24,09,35,4.80
2023,09,24,09,36,3.20
2023,09,24,09,37,4.80
2023,09,24,09,38,1.60
2023,09,24,09,39,1.60
2023,09,24,09,40,1.60
2023,09,24,09,42,1.60
2023,09,24,09,43,1.60
2023,09,24,09,46,3.20
2023,09,24,09,47,3.20
2023,09,24,09,48,1.60
2023,09,24,09,49,1.60
2023,09,24,09,50,1.60
2023,09,24,09,51,1.60
2023,09,24,09,52,3.20
2023,09,24,09,53,1.60
2023,09,24,09,54,1.60
2023,09,24,09,57,3.20
2023,09,24,09,58,1.60
2023,09,24,09,59,6.40
2023,09,24,10,00,6.40
2023,09,24,10,01,6.40
2023,09,24,10,02,6.40
2023,09,24,10,03,6.40
2023,09,24,10,04,6.40
2023,09,24,10,05,6.40
2023,09,24,10,06,6.40
2023,09,24,10,07,4.80
2023,09,24,10,08,6.40
2023,09,24,10,09,4.80
2023,09,24,10,10,3.20
2023,09,24,10,11,4.80
2023,09,24,10,12,4.80
2023,09,24,10,13,3.20
2023,09,24,10,14,4.80
2023,09,24,10,15,6.40
2023,09,24,10,16,11.30
2023,09,24,10,17,11.30
2023,09,24,10,18,11.30
2023,09,24,10,19,9.60
2023,09,24,10,20,4.80
2023,09,24,10,21,4.80
2023,09,24,10,22,6.40
2023,09,24,10,23,8.10
2023,09,24,10,24,8.10
2023,09,24,10,25,8.10
2023,09,24,10,26,8.10
2023,09,24,10,27,6.40
2023,09,24,10,28,4.80
2023,09,24,10,29,6.40
2023,09,24,10,30,4.80
2023,09,24,10,31,4.80
2023,09,24,10,32,9.60
2023,09,24,10,33,6.40
2023,09,24,10,34,6.40
2023,09,24,10,35,8.10
2023,09,24,10,36,4.80
2023,09,24,10,37,4.80
2023,09,24,10,38,4.80
2023,09,24,10,39,6.40
2023,09,24,10,40,4.80
2023,09,24,10,41,4.80
2023,09,24,10,42,3.20
2023,09,24,10,43,9.60
2023,09,24,10,44,1.60
2023,09,24,10,45,3.20
2023,09,24,10,46,12.90
2023,09,24,10,47,12.90
2023,09,24,10,48,6.40
2023,09,24,10,49,6.40
2023,09,24,10,50,6.40
2023,09,24,10,51,6.40
2023,09,24,10,52,3.20
2023,09,24,10,53,6.40
2023,09,24,10,54,8.10
2023,09,24,10,55,3.20
2023,09,24,10,56,4.80
2023,09,24,10,57,3.20
2023,09,24,10,58,4.80
2023,09,24,10,59,1.60
2023,09,24,11,00,1.60
2023,09,24,11,01,3.20
2023,09,24,11,02,3.20
2023,09,24,11,03,4.80
2023,09,24,11,04,6.40
2023,09,24,11,05,9.60
2023,09,24,11,06,6.40
2023,09,24,11,07,12.90
2023,09,24,11,08,14.50
2023,09,24,11,09,19.30
2023,09,24,11,10,8.10
2023,09,24,11,11,6.40
2023,09,24,11,12,6.40
2023,09,24,11,13,11.30
2023,09,24,11,14,11.30
2023,09,24,11,15,6.40
2023,09,24,11,16,14.50
2023,09,24,11,17,16.10
2023,09,24,11,18,14.50
2023,09,24,11,19,16.10
2023,09,24,11,20,16.10
2023,09,24,11,21,11.30
2023,09,24,11,22,14.50
2023,09,24,11,23,12.90
2023,09,24,11,24,17.70
2023,09,24,11,25,11.30
2023,09,24,11,26,4.80
2023,09,24,11,27,8.10
2023,09,24,11,28,8.10
2023,09,24,11,29,8.10
2023,09,24,11,30,11.30
2023,09,24,11,31,16.10
2023,09,24,11,32,6.40
2023,09,24,11,33,6.40
2023,09,24,11,34,17.70
2023,09,24,11,35,14.50
2023,09,24,11,36,11.30
2023,09,24,11,37,3.20
2023,09,24,11,38,6.40
2023,09,24,11,39,8.10
2023,09,24,11,40,14.50
2023,09,24,11,41,14.50
2023,09,24,11,42,6.40
2023,09,24,11,43,6.40
2023,09,24,11,44,6.40
2023,09,24,11,45,6.40
2023,09,24,11,46,3.20
2023,09,24,11,47,4.80
2023,09,24,11,48,6.40
2023,09,24,11,49,17.70
2023,09,24,11,50,22.50
2023,09,24,11,51,6.40
2023,09,24,11,52,6.40
2023,09,24,11,53,9.60
2023,09,24,11,54,12.90
2023,09,24,11,55,3.20
2023,09,24,11,56,16.10
2023,09,24,11,57,6.40
2023,09,24,11,58,3.20
2023,09,24,11,59,3.20
2023,09,24,12,00,6.40
2023,09,24,12,01,11.30
2023,09,24,12,02,4.80
2023,09,24,12,03,4.80
2023,09,24,12,04,6.40
2023,09,24,12,05,6.40
2023,09,24,12,06,3.20
2023,09,24,12,07,8.10
2023,09,24,12,08,4.80
2023,09,24,12,09,6.40
2023,09,24,12,10,9.60
2023,09,24,12,11,6.40
2023,09,24,12,12,6.40
2023,09,24,12,13,9.60
2023,09,24,12,14,6.40
2023,09,24,12,15,11.30
2023,09,24,12,16,12.90
2023,09,24,12,17,12.90
2023,09,24,12,18,14.50
2023,09,24,12,19,14.50
2023,09,24,12,20,17.70
2023,09,24,12,21,4.80
2023,09,24,12,22,6.40
2023,09,24,12,23,4.80
2023,09,24,12,24,11.30
2023,09,24,12,25,9.60
2023,09,24,12,26,6.40
2023,09,24,12,27,6.40
2023,09,24,12,28,8.10
2023,09,24,12,29,14.50
2023,09,24,12,30,9.60
2023,09,24,12,31,8.10
2023,09,24,12,32,6.40
2023,09,24,12,33,8.10
2023,09,24,12,34,4.80
2023,09,24,12,35,4.80
2023,09,24,12,36,9.60
2023,09,24,12,37,17.70
2023,09,24,12,38,19.30
2023,09,24,12,39,19.30
2023,09,24,12,40,11.30
2023,09,24,12,41,8.10
2023,09,24,12,42,14.50
2023,09,24,12,43,12.90
2023,09,24,12,44,4.80
2023,09,24,12,45,3.20
2023,09,24,12,46,14.50
2023,09,24,12,47,6.40
2023,09,24,12,48,3.20
2023,09,24,12,49,6.40
2023,09,24,12,50,6.40
2023,09,24,12,51,11.30
2023,09,24,12,52,11.30
2023,09,24,12,53,11.30
2023,09,24,12,54,12.90
2023,09,24,12,55,14.50
2023,09,24,12,56,8.10
2023,09,24,12,57,8.10
2023,09,24,12,58,6.40
2023,09,24,12,59,8.10
2023,09,24,13,00,9.60
2023,09,24,13,01,12.90
2023,09,24,13,02,11.30
2023,09,24,13,03,6.40
2023,09,24,13,04,6.40
2023,09,24,13,05,3.20
2023,09,24,13,06,3.20
2023,09,24,13,07,6.40
2023,09,24,13,08,6.40
2023,09,24,13,09,3.20
2023,09,24,13,10,6.40
2023,09,24,13,11,6.40
2023,09,24,13,12,6.40
2023,09,24,13,13,12.90
2023,09,24,13,14,8.10
2023,09,24,13,15,11.30
2023,09,24,13,16,6.40
2023,09,24,13,17,6.40
2023,09,24,13,18,12.90
2023,09,24,13,19,4.80
2023,09,24,13,20,6.40
2023,09,24,13,21,6.40
2023,09,24,13,22,9.60
2023,09,24,13,23,11.30
2023,09,24,13,24,14.50
2023,09,24,13,25,14.50
2023,09,24,13,26,4.80
2023,09,24,13,27,3.20
2023,09,24,13,28,16.10
2023,09,24,13,29,14.50
2023,09,24,13,30,3.20
2023,09,24,13,31,6.40
2023,09,24,13,32,11.30
2023,09,24,13,33,9.60
2023,09,24,13,34,12.90
2023,09,24,13,35,8.10
2023,09,24,13,36,3.20
2023,09,24,13,37,12.90
2023,09,24,13,38,4.80
2023,09,24,13,39,4.80
2023,09,24,13,40,8.10
2023,09,24,13,41,6.40
2023,09,24,13,42,4.80
2023,09,24,13,43,4.80
2023,09,24,13,44,6.40
2023,09,24,13,45,1.60
2023,09,24,13,46,3.20
2023,09,24,13,47,6.40
2023,09,24,13,48,4.80
2023,09,24,13,49,3.20
2023,09,24,13,50,6.40
2023,09,24,13,51,9.60
2023,09,24,13,52,4.80
2023,09,24,13,53,3.20
2023,09,24,13,54,4.80
2023,09,24,13,55,4.80
2023,09,24,13,56,6.40
2023,09,24,13,57,11.30
2023,09,24,13,58,8.10
2023,09,24,13,59,4.80
2023,09,24,14,00,20.90
2023,09,24,14,01,12.90
2023,09,24,14,02,11.30
2023,09,24,14,03,8.10
2023,09,24,14,04,14.50
2023,09,24,14,05,4.80
2023,09,24,14,06,4.80
2023,09,24,14,07,4.80
2023,09,24,14,08,8.10
2023,09,24,14,09,6.40
2023,09,24,14,10,8.10
2023,09,24,14,11,6.40
2023,09,24,14,12,4.80
2023,09,24,14,13,4.80
2023,09,24,14,14,12.90
2023,09,24,14,15,8.10
2023,09,24,14,16,8.10
2023,09,24,14,17,11.30
2023,09,24,14,18,8.10
2023,09,24,14,19,6.40
2023,09,24,14,20,4.80
2023,09,24,14,21,11.30
2023,09,24,14,22,14.50
2023,09,24,14,23,12.90
2023,09,24,14,24,16.10
2023,09,24,14,25,12.90
2023,09,24,14,26,11.30
2023,09,24,14,27,9.60
2023,09,24,14,28,12.90
2023,09,24,14,29,12.90
2023,09,24,14,30,12.90
2023,09,24,14,31,12.90
2023,09,24,14,32,12.90
2023,09,24,14,33,11.30
2023,09,24,14,34,11.30
2023,09,24,14,35,6.40
2023,09,24,14,36,16.10
2023,09,24,14,37,4.80
2023,09,24,14,38,4.80
2023,09,24,14,39,12.90
2023,09,24,14,40,12.90
2023,09,24,14,41,6.40
2023,09,24,14,42,1.60
2023,09,24,14,43,11.30
2023,09,24,14,44,11.30
2023,09,24,14,45,17.70
2023,09,24,14,46,19.30
2023,09,24,14,47,12.90
2023,09,24,14,48,14.50
2023,09,24,14,49,16.10
2023,09,24,14,50,11.30
2023,09,24,14,51,14.50
2023,09,24,14,52,14.50
2023,09,24,14,53,11.30
2023,09,24,14,54,11.30
2023,09,24,14,55,9.60
2023,09,24,14,56,11.30
2023,09,24,14,57,12.90
2023,09,24,14,58,12.90
2023,09,24,14,59,12.90
2023,09,24,15,00,17.70
2023,09,24,15,01,16.10
2023,09,24,15,02,6.40
2023,09,24,15,03,16.10
2023,09,24,15,04,9.60
2023,09,24,15,05,17.70
2023,09,24,15,06,14.50
2023,09,24,15,07,12.90
2023,09,24,15,08,12.90
2023,09,24,15,09,16.10
2023,09,24,15,10,14.50
2023,09,24,15,11,17.70
2023,09,24,15,12,12.90
2023,09,24,15,13,14.50
2023,09,24,15,14,14.50
2023,09,24,15,15,12.90
2023,09,24,15,16,11.30
2023,09,24,15,17,14.50
2023,09,24,15,18,20.90
2023,09,24,15,19,17.70
2023,09,24,15,20,17.70
2023,09,24,15,21,16.10
2023,09,24,15,22,12.90
2023,09,24,15,23,9.60
2023,09,24,15,24,6.40
2023,09,24,15,25,6.40
2023,09,24,15,26,12.90
2023,09,24,15,27,17.70
2023,09,24,15,28,16.10
2023,09,24,15,29,11.30
2023,09,24,15,30,12.90
2023,09,24,15,31,14.50
2023,09,24,15,32,12.90
2023,09,24,15,33,14.50
2023,09,24,15,34,3.20
2023,09,24,15,35,12.90
2023,09,24,15,36,9.60
2023,09,24,15,37,19.30
2023,09,24,15,38,19.30
2023,09,24,15,39,14.50
2023,09,24,15,40,9.60
2023,09,24,15,41,11.30
2023,09,24,15,42,9.60
2023,09,24,15,43,9.60
2023,09,24,15,44,6.40
2023,09,24,15,45,3.20
2023,09,24,15,46,9.60
2023,09,24,15,47,6.40
2023,09,24,15,48,14.50
2023,09,24,15,49,14.50
2023,09,24,15,50,9.60
2023,09,24,15,51,6.40
2023,09,24,15,52,6.40
2023,09,24,15,53,14.50
2023,09,24,15,54,19.30
2023,09,24,15,55,11.30
2023,09,24,15,56,16.10
2023,09,24,15,57,8.10
2023,09,24,15,58,9.60
2023,09,24,15,59,4.80
2023,09,24,16,00,6.40
2023,09,24,16,01,9.60
2023,09,24,16,02,12.90
2023,09,24,16,03,14.50
2023,09,24,16,04,16.10
2023,09,24,16,05,11.30
2023,09,24,16,06,12.90
2023,09,24,16,07,4.80
2023,09,24,16,08,9.60
2023,09,24,16,09,16.10
2023,09,24,16,10,14.50
2023,09,24,16,11,12.90
2023,09,24,16,12,20.90
2023,09,24,16,13,12.90
2023,09,24,16,14,12.90
2023,09,24,16,15,11.30
2023,09,24,16,16,8.10
2023,09,24,16,17,4.80
2023,09,24,16,18,8.10
2023,09,24,16,19,14.50
2023,09,24,16,20,17.70
2023,09,24,16,21,14.50
2023,09,24,16,22,12.90
2023,09,24,16,23,17.70
2023,09,24,16,24,12.90
2023,09,24,16,25,12.90
2023,09,24,16,26,16.10
2023,09,24,16,27,14.50
2023,09,24,16,28,12.90
2023,09,24,16,29,12.90
2023,09,24,16,30,11.30
2023,09,24,16,31,8.10
2023,09,24,16,32,12.90
2023,09,24,16,33,16.10
2023,09,24,16,34,12.90
2023,09,24,16,35,8.10
2023,09,24,16,36,16.10
2023,09,24,16,37,24.20
2023,09,24,16,38,16.10
2023,09,24,16,39,9.60
2023,09,24,16,40,14.50
2023,09,24,16,41,16.10
2023,09,24,16,42,17.70
2023,09,24,16,43,20.90
2023,09,24,16,44,20.90
2023,09,24,16,45,17.70
2023,09,24,16,46,14.50
2023,09,24,16,47,14.50
2023,09,24,16,48,17.70
2023,09,24,16,49,20.90
2023,09,24,16,50,11.30
2023,09,24,16,51,11.30
2023,09,24,16,52,24.20
2023,09,24,16,53,20.90
2023,09,24,16,54,16.10
2023,09,24,16,55,17.70
2023,09,24,16,56,17.70
2023,09,24,16,57,17.70
2023,09,24,16,58,19.30
2023,09,24,16,59,27.40
2023,09,24,17,00,20.90
2023,09,24,17,01,20.90
2023,09,24,17,02,16.10
2023,09,24,17,03,19.30
2023,09,24,17,04,19.30
2023,09,24,17,05,22.50
2023,09,24,17,06,19.30
2023,09,24,17,07,24.20
2023,09,24,17,08,20.90
2023,09,24,17,09,27.40
2023,09,24,17,10,14.50
2023,09,24,17,11,14.50
2023,09,24,17,12,19.30
2023,09,24,17,13,24.20
2023,09,24,17,14,19.30
2023,09,24,17,15,14.50
2023,09,24,17,16,24.20
2023,09,24,17,17,30.60
2023,09,24,17,18,30.60
2023,09,24,17,19,20.90
2023,09,24,17,20,24.20
2023,09,24,17,21,30.60
2023,09,24,17,22,27.40
2023,09,24,17,23,33.80
2023,09,24,17,24,24.20
2023,09,24,17,25,19.30
2023,09,24,17,26,24.20
2023,09,24,17,27,29.00
2023,09,24,17,28,22.50
2023,09,24,17,29,17.70
2023,09,24,17,30,27.40
2023,09,24,17,31,19.30
2023,09,24,17,32,19.30
2023,09,24,17,33,25.70
2023,09,24,17,34,16.10
2023,09,24,17,35,29.00
2023,09,24,17,36,20.90
2023,09,24,17,37,24.20
2023,09,24,17,38,25.70
2023,09,24,17,39,25.70
2023,09,24,17,40,27.40
2023,09,24,17,41,29.00
2023,09,24,17,42,32.20
2023,09,24,17,43,29.00
2023,09,24,17,44,35.40
2023,09,24,17,45,33.80
2023,09,24,17,46,24.20
2023,09,24,17,47,25.70
2023,09,24,17,48,25.70
2023,09,24,17,49,29.00
2023,09,24,17,50,16.10
2023,09,24,17,51,24.20
2023,09,24,17,52,25.70
2023,09,24,17,53,25.70
2023,09,24,17,54,22.50
2023,09,24,17,55,29.00
2023,09,24,17,56,24.20
2023,09,24,17,57,29.00
2023,09,24,17,58,33.80
2023,09,24,17,59,30.60
2023,09,24,18,00,22.50
2023,09,24,18,01,22.50
2023,09,24,18,02,20.90
2023,09,24,18,03,32.20
2023,09,24,18,04,22.50
2023,09,24,18,05,20.90
2023,09,24,18,06,25.70
2023,09,24,18,07,30.60
2023,09,24,18,08,17.70
2023,09,24,18,09,24.20
2023,09,24,18,10,33.80
2023,09,24,18,11,33.80
2023,09,24,18,12,32.20
2023,09,24,18,13,35.40
2023,09,24,18,14,24.20
2023,09,24,18,15,27.40
2023,09,24,18,16,22.50
2023,09,24,18,17,33.80
2023,09,24,18,18,40.20
2023,09,24,18,19,32.20
2023,09,24,18,20,40.20
2023,09,24,18,21,40.20
2023,09,24,18,22,37.00
2023,09,24,18,23,22.50
2023,09,24,18,24,29.00
2023,09,24,18,25,45.10
2023,09,24,18,26,33.80
2023,09,24,18,27,22.50
2023,09,24,18,28,29.00
2023,09,24,18,29,35.40
2023,09,24,18,30,33.80